This is the latest recevied weather packets stored in our database for station/object XQ6AK-15. If no packets are shown the sender has not sent any weather packets the latest 10 day(s).
| Time | Temp. | Humidity | Pressure | Rain* | Wind** | Luminosity | Snow |
|---|---|---|---|---|---|---|---|
| 1787586160 | 9.44° C | 88% | 1011.8 hPa | 0 mm | - | 56 W/m² | - |
| 1787585856 | 10° C | 86% | 1011.8 hPa | 0 mm | - | 53 W/m² | - |
| 1787585551 | 10° C | 88% | 1011.9 hPa | 0 mm | - | 50 W/m² | - |
| 1787585246 | 9.44° C | 88% | 1012 hPa | 0 mm | - | 55 W/m² | - |
| 1787584946 | 9.44° C | 87% | 1011.8 hPa | 0 mm | - | 61 W/m² | - |
| 1787584640 | 9.44° C | 87% | 1011.8 hPa | 0 mm | - | 60 W/m² | - |
| 1787584339 | 9.44° C | 88% | 1012 hPa | 0 mm | - | 71 W/m² | - |
| 1787584038 | 9.44° C | 89% | 1011.9 hPa | 0 mm | - | 73 W/m² | - |
| 1787583733 | 8.89° C | 90% | 1012.1 hPa | 0 mm | - | 69 W/m² | - |
| 1787583428 | 8.89° C | 90% | 1012.1 hPa | 0 mm | - | 65 W/m² | - |
| 1787583126 | 8.89° C | 92% | 1011.8 hPa | 0 mm | - | 60 W/m² | - |
| 1787582821 | 8.89° C | 95% | 1011.9 hPa | 0 mm | - | 62 W/m² | - |
| 1787582516 | 8.33° C | 97% | 1011.8 hPa | 0 mm | - | 52 W/m² | - |
| 1787582212 | 8.33° C | 99% | 1012 hPa | 0 mm | - | 53 W/m² | - |
| 1787581911 | 7.78° C | 99% | 1011.8 hPa | 0 mm | - | 51 W/m² | - |
| 1787581607 | 7.78° C | 99% | 1011.9 hPa | 0 mm | - | 50 W/m² | - |
| 1787581307 | 7.78° C | 99% | 1011.8 hPa | 0 mm | - | 49 W/m² | - |
| 1787581001 | 7.78° C | 99% | 1012 hPa | 0 mm | - | 52 W/m² | - |
| 1787580697 | 7.78° C | 99% | 1012.1 hPa | 0 mm | - | 56 W/m² | - |
| 1787580393 | 7.78° C | 99% | 1012.4 hPa | 0 mm | - | 62 W/m² | - |
| 1787580088 | 7.78° C | 99% | 1012.3 hPa | 1.78 mm | - | 60 W/m² | - |
| 1787579787 | 7.22° C | 99% | 1012.4 hPa | 1.78 mm | - | 52 W/m² | - |
| 1787579482 | 7.22° C | 99% | 1012.3 hPa | 0 mm | - | 43 W/m² | - |
| 1787579178 | 7.22° C | 99% | 1012.3 hPa | 0 mm | - | 44 W/m² | - |
| 1787578873 | 7.22° C | 99% | 1012.4 hPa | 0 mm | - | 29 W/m² | - |
* Rain latest hour (hover to see other rain measurements)
** Current wind speed in m/s (hover to see current wind gust speed)